FDX5238 LIMC-LFPG

Flight info

Callsign FDX5238
Flight time N/A
Altitude 34000
Route AOSTA DCT ORSUD DCT MOLUS DCT UNKIR DCT GIVRI DCT TINIL
Aircraft B77L/H-SDE1E2E3FGHIJ2J3J4J5M1RWXY/LB1D1

Departure

Time N/A
Airport Milan Malpensa International Airport (LIMC)

Arrival

Time 2026-05-05 21:37
Airport Charles de Gaulle International Airport (LFPG)
Time Latitude Longitude Altitude Speed Heading
2026-05-05 21:22 48.84078 3.02313 11824 ft 319 kts 301°
2026-05-05 21:22 48.85361 2.99616 11819 ft 318 kts 309°
2026-05-05 21:22 48.86874 2.97155 11831 ft 318 kts 312°
2026-05-05 21:22 48.88414 2.94744 11829 ft 318 kts 311°
2026-05-05 21:23 48.89937 2.92288 11831 ft 319 kts 311°
2026-05-05 21:23 48.91443 2.89809 11833 ft 319 kts 311°
2026-05-05 21:23 48.92873 2.87260 11814 ft 312 kts 301°
2026-05-05 21:23 48.93615 2.84184 11657 ft 312 kts 276°
2026-05-05 21:24 48.93571 2.80920 11246 ft 311 kts 264°
2026-05-05 21:24 48.93389 2.77655 10846 ft 309 kts 264°
2026-05-05 21:24 48.93207 2.74430 10612 ft 302 kts 264°
2026-05-05 21:24 48.93044 2.71292 10407 ft 295 kts 265°
2026-05-05 21:25 48.92917 2.68204 10157 ft 289 kts 266°
2026-05-05 21:25 48.92804 2.65187 9886 ft 285 kts 265°
2026-05-05 21:25 48.92697 2.62197 9552 ft 283 kts 266°
2026-05-05 21:25 48.92547 2.59185 9004 ft 288 kts 265°
2026-05-05 21:26 48.92368 2.56145 8629 ft 287 kts 266°
2026-05-05 21:26 48.92183 2.53143 8303 ft 284 kts 266°
2026-05-05 21:26 48.92001 2.50152 7919 ft 283 kts 265°
2026-05-05 21:26 48.91817 2.47213 7585 ft 282 kts 265°
2026-05-05 21:27 48.91635 2.44247 7254 ft 280 kts 265°
2026-05-05 21:27 48.91443 2.41306 6870 ft 280 kts 265°
2026-05-05 21:27 48.91245 2.38369 6552 ft 278 kts 265°
2026-05-05 21:27 48.91037 2.35461 6184 ft 278 kts 266°
2026-05-05 21:28 48.90817 2.32536 5807 ft 276 kts 266°
2026-05-05 21:28 48.90610 2.29641 5466 ft 274 kts 265°
2026-05-05 21:28 48.90404 2.26774 5200 ft 269 kts 265°
2026-05-05 21:28 48.90204 2.23984 4918 ft 265 kts 266°
2026-05-05 21:29 48.89999 2.21220 4652 ft 260 kts 265°
2026-05-05 21:29 48.89807 2.18485 4194 ft 259 kts 270°
2026-05-05 21:29 48.89969 2.15764 4015 ft 258 kts 288°
2026-05-05 21:29 48.90632 2.13302 3988 ft 246 kts 305°
2026-05-05 21:30 48.91676 2.11367 3984 ft 229 kts 323°
2026-05-05 21:30 48.92984 2.10112 3997 ft 220 kts 341°
2026-05-05 21:30 48.94439 2.09585 4012 ft 217 kts 359°
2026-05-05 21:30 48.95942 2.09744 4022 ft 218 kts
2026-05-05 21:31 48.97451 2.10147 4011 ft 222 kts 11°
2026-05-05 21:31 48.98879 2.10878 3981 ft 215 kts 35°
2026-05-05 21:31 48.99801 2.12661 4001 ft 222 kts 68°
2026-05-05 21:31 49.00168 2.14957 4005 ft 224 kts 73°
2026-05-05 21:32 49.00485 2.17294 4010 ft 225 kts 76°
2026-05-05 21:32 49.00690 2.19602 3975 ft 214 kts 79°
2026-05-05 21:32 49.00823 2.21804 3976 ft 204 kts 81°
2026-05-05 21:32 49.00940 2.23943 3995 ft 202 kts 81°
2026-05-05 21:33 49.01056 2.26114 3848 ft 209 kts 82°
2026-05-05 21:33 49.01168 2.28326 3547 ft 207 kts 81°
2026-05-05 21:33 49.01282 2.30474 3300 ft 199 kts 81°
2026-05-05 21:33 49.01395 2.32540 3017 ft 194 kts 79°
2026-05-05 21:34 49.01503 2.34533 2751 ft 187 kts 79°
2026-05-05 21:34 49.01603 2.36439 2539 ft 172 kts 78°
2026-05-05 21:34 49.01701 2.38199 2266 ft 158 kts 78°
2026-05-05 21:34 49.01785 2.39780 2066 ft 143 kts 78°
2026-05-05 21:35 49.01865 2.41257 1922 ft 141 kts 78°
2026-05-05 21:35 49.01947 2.42774 1730 ft 146 kts 77°
2026-05-05 21:35 49.02028 2.44279 1497 ft 139 kts 77°
2026-05-05 21:35 49.02108 2.45742 1317 ft 139 kts 78°
2026-05-05 21:36 49.02189 2.47227 1114 ft 142 kts 81°
2026-05-05 21:36 49.02269 2.48751 920 ft 145 kts 81°
2026-05-05 21:36 49.02349 2.50273 692 ft 142 kts 79°
2026-05-05 21:36 49.02432 2.51754 519 ft 140 kts 80°
2026-05-05 21:37 49.02507 2.53221 370 ft 133 kts 79°
2026-05-05 21:37 49.02578 2.54424 363 ft 89 kts 85°
2026-05-05 21:37 49.02609 2.55059 365 ft 25 kts 92°
2026-05-05 21:37 49.02556 2.55339 366 ft 27 kts 115°
2026-05-05 21:38 49.02492 2.55539 365 ft 17 kts 117°
2026-05-05 21:38 49.02396 2.55616 362 ft 16 kts 175°
2026-05-05 21:38 49.02283 2.55629 361 ft 16 kts 176°
2026-05-05 21:38 49.02171 2.55642 365 ft 16 kts 175°
2026-05-05 21:39 49.02059 2.55657 365 ft 16 kts 174°
2026-05-05 21:39 49.01953 2.55669 359 ft 13 kts 178°
2026-05-05 21:39 49.01889 2.55590 367 ft 13 kts 259°
2026-05-05 21:39 49.01880 2.55453 359 ft 13 kts 265°
2026-05-05 21:40 49.01873 2.55310 365 ft 14 kts 265°
2026-05-05 21:40 49.01864 2.55135 364 ft 21 kts 265°
2026-05-05 21:40 49.01850 2.54869 359 ft 27 kts 265°
2026-05-05 21:40 49.01833 2.54583 359 ft 27 kts 265°
2026-05-05 21:41 49.01819 2.54297 365 ft 27 kts 265°
2026-05-05 21:41 49.01804 2.54011 367 ft 27 kts 265°
2026-05-05 21:41 49.01789 2.53725 365 ft 27 kts 265°
2026-05-05 21:41 49.01771 2.53439 363 ft 27 kts 265°
2026-05-05 21:42 49.01756 2.53153 366 ft 27 kts 266°
2026-05-05 21:42 49.01742 2.52868 366 ft 27 kts 265°
2026-05-05 21:42 49.01726 2.52582 363 ft 27 kts 265°
2026-05-05 21:42 49.01707 2.52297 364 ft 27 kts 265°
2026-05-05 21:43 49.01694 2.52011 360 ft 27 kts 265°
2026-05-05 21:43 49.01679 2.51727 364 ft 27 kts 265°
2026-05-05 21:43 49.01664 2.51450 359 ft 25 kts 265°
2026-05-05 21:43 49.01649 2.51190 362 ft 25 kts 265°
2026-05-05 21:44 49.01636 2.50929 361 ft 25 kts 265°
2026-05-05 21:44 49.01621 2.50668 359 ft 25 kts 266°
2026-05-05 21:44 49.01594 2.50453 368 ft 16 kts 225°
2026-05-05 21:44 49.01489 2.50437 364 ft 16 kts 179°
2026-05-05 21:45 49.01387 2.50386 366 ft 16 kts 191°
2026-05-05 21:45 49.01279 2.50393 361 ft 16 kts 175°
2026-05-05 21:45 49.01171 2.50406 360 ft 16 kts 175°
2026-05-05 21:45 49.01085 2.50417 361 ft 11 kts 175°
2026-05-05 21:46 49.01043 2.50494 365 ft 11 kts 92°
2026-05-05 21:46 49.01044 2.50556 359 ft 0 kts 86°